Terminal Aerodrome Forecast
Issued by NWS Salt Lake City, UT

Home | Current Version | Previous Version | Text Only | Print | Product List | Glossary On
Versions: 1 2 3 4 5 6 7 8 9 10 11 12 13 14 15 16 17 18 19 20 21 22 23 24 25 26 27 28 29 30 31 32 33 34 35 36 37 38 39 40 41 42 43 44 45 46 47 48 49 50
000
FTUS45 KSLC 101846 AAA
TAFSLC
TAF AMD
KSLC 101846Z 1019/1124 35006KT 3/4SM BR BCFG BKN005
     FM102000 33006KT 2SM BR SCT005 SCT200
     FM110300 15004KT 1SM BR BCFG SCT003 SCT200
     FM110800 34003KT 1/4SM FZFG BKN002
     FM111800 33005KT 2SM BR SCT002=

USA.gov is the U.S. government's official web portal to all federal, state and local government web resources and services.